User: anonymous   Login
Location: Newark
(7.0858°N, 171.3717°E)
Time: 10:14:52
(UTC+00:00)
Language:

FALCON 9 R/B - Orbit

View from above orbital plane
View from above orbital plane
View from above satellite
View from above satellite

Ground track
Ground track

The orbit data is extracted from the following two-line orbital elements,

1 49130U 21082A   21272.53501442  .23836338  46224-5  22391-3 0  9997
2 49130  69.9875  81.6629 0006793 145.5509 299.6961 16.51219688  2482
Epoch (UTC): 29 September 2021 12:50:25
Eccentricity: 0.0006793
inclination: 69.9875°
perigee height: 132 km
apogee height: 140 km
right ascension of ascending node: 81.6629°
argument of perigee: 145.5509°
revolutions per day: 16.51219688
mean anomaly at epoch: 299.6961°
orbit number at epoch: 248

The dashed part of the orbit path shows where the satellite is in the earth's shadow,  

DLR